Погода в Казани

Погода в Казани : погода сейчас, прогноз погоды и архив. Всё, что Вы хотите узнать о погоде в Казани!

Хотите узнать прогноз погоды в Казани? Тогда Вам сюда: Погода в Казани

Поиск расширенной информации на нашем сайте:

Другие новости

Новости СМИ2

Главная страница сайта

Новости сайта

02.10.2013

Напоминаем, что на нашем новом сайте вы можете получить высокодетализированные прогнозы погоды по пунктам России, СНГ и мира (включающие важные для авиации метеовеличины, такие как направление и скорость ветра, видимость, явления погоды, количество и форма облачности, нижняя и верхняя граница облачности), а также ознакомиться с разнообразными материалами по авиационной метеорологии и подборкой полезных ссылок на эту тему.

Сайт Метеоцентр.Азия посвящён разработке технологий оптимизации авиаметеорологического обслуживания, включая проектирование и перспективное создание нескольких автоматизированных авиаметеорологических систем:
- система выпуска высокодетальных прогностических карт явлений погоды для нижнего воздушного пространства по России и ближнему зарубежью;
- система верификации прогнозов TAF (выпускаемых синоптиками официальных АМСГ РФ и ближнего зарубежья) и AUTOTAF (выпускаемых сайтом Метеоцентр.Азия) - выявление ошибок, онлайн-сопоставление с фактической погодой METAR, автоматическое внесение коррективов в прогнозы при резком отклонении фактической погоды от прогноза, подсчёт оправдываемости прогнозов по элементам и в целом;
- система обработки, анализа и отображения авиаметеорологической информации для применения провайдерами метеорологической информации.


Погода в Казани - сегодня

Время (UTC), дата Ветер
(°,м/с) 
Видим.   Явления Облачность Т
(°С)
Тd
(°С)
f(%) Тe
(°С)
Pmin
(гПа)
dP
(гПа)
Po
(мм)
O2
(г/м3)
Тmin Tmax R s Состояние
почвы
09 24.06.17 320 (СЗ) 10 км    9/6 300 м верхняя 
[Cu hum|Ci fib]
+18.4 +7.6 49 +20  1004.5  -0.6  743  279           
12 24.06.17 130 (ЮВ) 10 км    10/4 300 м верхняя 
[Cu hum|Cs]
+18.9 +6.8 45 +20  1003.3  -1.1  742  279           
15 24.06.17 190 (Ю) 10 км    10/4 300 м кучево-дожд., средняя 
[Cb cap|As op]
+17.9 +8.1 53 +19  1002.7  -0.7  742  279    +19.1       
18 24.06.17 350 (С) 10 км    10/0 средняя 
[Ac As]
+16.3 +8.1 58 +18  1002.4  -0.4  741  280           
21 24.06.17 330 (СЗ) 10 км    8/0 средняя, верхняя 
[Ac trans|Ci fib]
+14.1 +7.8 66 +15  1002.1  -0.3  741  283           
00 25.06.17 330 (СЗ) 10 км    10/0 средняя, верхняя 
[Ac trans|Ci fib]
+13.4 +8 70 +15  1001.9  -0.3  741  283           
03 25.06.17 310 (СЗ) 10 км    8/0 верхняя 
[Ci fib]
+14.2 +8.2 67 +15  1003.2  1.3  742  283  +12.6        влажная 
06 25.06.17 290 (З) 10 км    8/3 1000 м средняя 
[Cu med, cong|Ac lent]
+17.1 +7 51 +17  1003.6  0.6  742  280           
09 25.06.17 280 (З) 10 км    9/9 600 м 
[Cu Sc]
+17.5 +6.1 47 +18  1004.7  1.1  743  280           
12 25.06.17 270 (З) 10 км    9/5 600 м средняя 
[Sc|Ac cast]
+17.8 +6.5 47 +18  1005.6  0.9  744  280           
15 25.06.17 280 (З) 10 км    9/9 600 м 
[Sc]
+17.8 +7.3 50 +19  1006.4  0.8  744  280    +19       
18 25.06.17 280 (З) 10 км    6/3 1000 м средняя 
[Sc diur, vesp|Ac lent]
+16 +6.8 54 +17  1008.1  1.5  746  283           
21 25.06.17 тихо ()   10 км    3/0 средняя 
[Ac lent]
+11.8 +6.7 71 +12  1009.1  0.7  746  287           
00 26.06.17 110 (В) 10 км    9/6 1000 м средняя 
[Sc|Ac lent]
+10.5 +7.5 82 +12  1009.7  0.6  747  288           
03 26.06.17 100 (В) 10 км  слаб. дождь  10/10 600 м 
[Sc]
+12.8 +8.4 75 +14  1009.8  0.2  747  286  +9.5        влажная 
06 26.06.17 160 (Ю) 10 км  {дождь}  5/3 1000 м средняя, верхняя 
[Sc|Ac trans|Ci]
+19.3 +10.5 57 +22  1008.8  -0.6  746  279           
09 26.06.17 250 (З) 10 км    6/5 1000 м средняя, верхняя 
[Cu med, cong|Ac cast|Cc]
+22.9 +11.5 49 +26  1008.2  -0.4  746  275           
12 26.06.17 240 (ЮЗ) 10 км    8/3 1000 м средняя, верхняя 
[Cu med, cong|Ac cuf|Cc]
+24.2 +10.7 43 +26  1007.3  -0.9  745  274           
15 26.06.17 270 (З) 4000 м  дождь  10/5 300 м средняя 
[Sc diur, vesp|As op]
+21.1 +15.1 69 +30  1007.2  -0.2  745  276    +25.1  0.8     
18 26.06.17 150 (ЮВ) 10 км  {дождь}  10/0 средняя, верхняя 
[Ac cast|Cs]
+18.2 +16.1 88 +31  1007.1  -0.3  745  278           
21 26.06.17 160 (Ю) 10 км    ясно 
+16.9 +15.1 89 +27  1006.6  -0.5  745  279           
00 27.06.17 150 (ЮВ) 10 км    10/0 средняя 
[Ac As]
+16.6 +14.8 89 +27  1005.8  -0.8  744  279           
03 27.06.17 180 (Ю) 10 км  слаб. ливневой дождь  10/5 600 м кучево-дожд., средняя 
[Cb cap|As op]
+17.2 +15.3 89 +28  1005.1  -0.7  743  279  +16.1      влажная 
06 27.06.17 230 (ЮЗ) 10 км  слаб. дождь{ливн. осадки}  10/10 300 м 
[Frnb]
+18.9 +17.1 89 +33  1004.2  -0.7  743  276           
09 27.06.17 240 (ЮЗ) 10 км  {дождь}  10/10 300 м 
[Frnb|Ns]
+20.8 +16.9 78 +33  1004.2  0.1  743  274           
Время (UTC), дата Ветер
(°,м/с) 
Видим.   Явления Облачность Т
(°С)
Тd
(°С)
f(%) Тe
(°С)
Pmin
(гПа)
dP
(гПа)
Po
(мм)
O2
(г/м3)
Тmin Tmax R s Состояние
почвы

Для получения пояснительной информации подведите курсор к названию столбца.

ПОГОДА в Казани - архив

Всё, что Вы хотите узнать о погоде в Казани - удобно и подробно!

Выберите нужную дату (начиная с 1 января 2015* года) и нажмите кнопку "Найти".
Будут отображены архивные сводки погоды по пункту Казань, начиная с указанной даты.


Отображать данные в формате CSV (для использования в таблицах Excel)


Внимание! Наш архив погоды предназначен исключительно для личного некоммерческого использования в познавательных целях. Если Вам необходимы официальные справки о состоянии погоды (для производственных, юридических, коммерческих и т.п. целей), обращайтесь в органы Росгидромета.

*Примечание: данная дата относится к архиву по метеостанциям СССР (Россия, СНГ, Балтия).
Архив по метеостанциям Зарубежной Европы и Азии (кроме Китая) хранится 10 дней, по другим регионам земного шара (Китай, Африка, Америка, Австралия, Океания) - 1 день.

Казань - район местоположения метеостанции


Название, широта, долгота, высота метеостанции:
Казань 55.6°ш. 49.3°д. 116 м над ур. моря [Российская Федерация]

Дополнительная информация

В oтличие oт бoльшинства пoгoдных сайтoв мы публикуем пoдрoбную метеoинфoрмацию в детальнoм прoфессиoнальнoм фoрмате.

Характеристики температуры и влажнoсти вoздуха измеряются на высoте 2 м в тени вдали oт зданий и деревьев.
Скoрoсть ветра измеряется на высoте 10 м (на урoвне рoста челoвека скoрoсть ветра ниже в 1.5-2 раза). Если метеoстанция нахoдится в гoрoде или в лесу, тo скoрoсть ветра занижена на 2-4 м/с пo сравнению с oткрытым местoм. Скoрoсть ветра над акватoриями крупных рек и oзёр, а также на вершинах хoлмoв на 2-5 м/с выше, чем в oбычных услoвиях.
Атмoсфернoе давление в разных тoчках местнoсти мoжет значительнo oтличаться oт давления на метеoстанции, в зависимoсти oт услoвий рельефа (при пoдъёме на 10 м давление пoнижается примернo на 1 мм рт.ст.).